RKSSRKSO

Guest
Details From RKSS - Seoul Gimpo
To RKSO - Osan Ab
Flight Number -
Tags Generated
Created
Modified
Stats Distance 31 nm / 57 km
Max Altitude 0 ft / 0 m
Waypoints 2
Social Downloads 0
Likes 0
Share VATSIM

Download

Looking for another format? Having issues loading an existing format? Contact us
Advertisement - Login to hide

Notes

Generated

Route

RKSS RKSO

ID Type Via Altitude Latitude Longitude Leg Dist Tot Dist Heading (true) Name
O RKSS APT - 0 ft / 0 m 37.56798˚ 126.77553˚ - 0 nm - -
O RKSO APT - 0 ft / 0 m 37.08934˚ 127.01424˚ 30 nm 30 nm 158° / 158° -

Altitude Profile

Advertisement - Login to hide

RKSS

Details ICAO RKSS (GMP)
Name Seoul Gimpo
Region South Korea
Timezone Asia/Seoul (UTC+9.0)
Stats Elevation 58 ft / 18 m (AMSL)
Location 37.558310° 126.790584°
Runways 2
Magnetic Variation 8.397° W

METAR

RKSS 151200Z 32007KT 5000 HZ BKN025 M01/M09 Q1025 NOSIG

Decode

TAF

TAF RKSS 151100Z 1512/1618 32007KT 7000 FEW010 BKN025 OVC120 TNM09/1521Z TXM01/1606Z BECMG 1514/1515 SCT030 BECMG 1604/1605 33015G25KT FEW010 BKN025 OVC120 BECMG 1608/1609 SCT030 BECMG 1614/1615 33008KT

Decode

Departure Runways

ID Width Length Bearing (true) Bearing (mag) Surface Threshold Offset Overrun Length
14L 148 ft / 45 m 11,811 ft / 3,600 m 135.13° 143.53° Asphalt 0 ft / 0 m 394 ft / 120 m
14R 197 ft / 60 m 10,499 ft / 3,200 m 135.08° 143.48° Asphalt 0 ft / 0 m 390 ft / 119 m
32L 197 ft / 60 m 10,499 ft / 3,200 m 315.09° 323.49° Asphalt 0 ft / 0 m 385 ft / 117 m
32R 148 ft / 45 m 11,811 ft / 3,600 m 315.15° 323.55° Asphalt 0 ft / 0 m 394 ft / 120 m

RKSO

Details ICAO RKSO (OSN)
Name OSAN AB
Region South Korea
Timezone Asia/Seoul (UTC+9.0)
Stats Elevation 40 ft / 12 m (AMSL)
Location 37.090617° 127.029593°
Runways 1
Magnetic Variation 8.286° W

METAR

RKSO 151158Z 19004KT 5SM -SN BKN020 OVC027 01/M09 A3026 RMK AO2A RAB45 SLP251 P0000 60000 T00101091 10016 20000 51006 $

Decode

TAF

TAF RKSO 151100Z 1511/1617 18009KT 8000 -SHSN BKN020 620204 QNH3022INS TEMPO 1511/1515 18010G15KT BECMG 1515/1516 32012KT 9999 NSW SCT030 QNH3020INS BECMG 1606/1607 32012G18KT 9999 SCT030 QNH3021INS TEMPO 1606/1612 8000 -SHSN TX00/1511Z TNM06/1611Z

Decode

Destination Runways

ID Width Length Bearing (true) Bearing (mag) Surface Threshold Offset Overrun Length
09 150 ft / 46 m 8,985 ft / 2,739 m 84.03° 92.32° Concrete 0 ft / 0 m 1,007 ft / 307 m
27 150 ft / 46 m 8,985 ft / 2,739 m 264.05° 272.34° Concrete 0 ft / 0 m 998 ft / 304 m

Approach Navaids

Runway Type Ident Frequency Range Bearing (true) Bearing (mag) Slope Elevation
09 Localiser ININ 111.30 MHz 18 nm / 33 km 84.09° 92.38° - 45 ft / 14 m (AMSL)
09 Glidescope ININ 111.30 MHz 10 nm / 19 km 84.00° 92.29° 3.00° 42 ft / 13 m (AMSL)
27 Localiser IOSN 111.30 MHz 18 nm / 33 km 264.02° 272.31° - 39 ft / 12 m (AMSL)
27 Glidescope IOSN 111.30 MHz 10 nm / 19 km 263.69° 271.98° 3.00° 51 ft / 16 m (AMSL)

Popular Alternatives